Theta_e
304 305 305 306 306 306 306 307 307 307 308 308 308 308 308 309 310 312 313 315 316 317 318 318 318 318 318 320 322 321 320 321 321 321 319 320 323 323 328 327 328 328 329 337 340 340 341
304 304 304 304 304 305 305 306 306 307 308 308 308 308 309 309 309 310 312 314 315 317 318 319 319 318 318 318 322 321 321 322 322 320 320 322 323 324 329 328 326 328 336 338 339 339 341
305 305 305 305 304 304 304 305 305 306 307 307 308 308 309 310 310 310 311 312 314 316 318 319 319 319 320 322 325 324 322 324 323 320 320 322 324 327 327 327 327 337 336 336 337 339 343
305 305 305 305 305 305 305 305 305 305 306 307 307 308 308 309 309 310 311 312 313 315 317 319 320 324 325 326 327 323 322 324 324 322 321 322 323 322 325 327 335 335 335 339 338 339 343
304 304 304 304 304 305 305 305 305 305 305 306 306 307 308 309 309 309 312 312 313 315 317 321 325 325 326 326 325 326 322 325 324 323 322 322 321 323 325 325 332 331 339 338 341 339 341
302 302 302 302 302 303 303 304 304 305 305 306 306 306 307 308 309 310 312 313 313 316 322 327 326 325 325 326 327 326 327 327 324 321 322 322 321 320 319 327 337 336 339 336 342 339 340
301 301 301 301 301 301 302 302 303 303 304 304 305 306 307 307 308 309 311 313 317 319 318 321 322 324 325 324 324 326 327 327 324 319 316 318 318 318 322 324 332 331 337 340 339 338 340
300 300 300 301 301 301 301 301 302 302 302 304 304 305 306 307 308 308 310 312 315 313 311 317 319 318 320 320 323 324 325 326 322 318 316 318 317 318 321 324 327 333 332 336 334 337 340
301 300 300 300 301 301 301 301 301 301 301 302 303 304 305 307 308 309 309 310 312 310 311 316 319 319 320 320 321 323 325 325 319 318 316 316 319 320 325 325 325 326 325 326 336 339 341
301 300 300 300 301 301 301 301 301 301 301 302 302 303 304 306 308 308 309 309 309 309 314 317 320 322 322 322 322 321 324 327 318 319 316 316 318 322 324 327 326 326 324 326 334 340 340
301 300 300 300 300 300 301 301 301 301 301 302 302 302 303 303 304 307 307 307 309 316 320 320 322 324 323 322 322 323 323 325 322 319 317 318 319 321 326 326 325 327 325 326 333 335 338
303 301 300 300 300 300 300 300 301 301 301 302 302 302 302 304 305 307 308 310 313 315 320 320 325 323 323 323 322 323 325 327 326 320 317 319 320 320 321 325 327 323 321 321 322 328 335
304 302 300 300 300 300 301 300 300 301 301 302 302 303 303 303 305 306 306 307 313 316 317 320 321 320 320 321 322 322 321 319 321 320 319 319 319 322 323 324 324 320 321 323 326 333 334
306 304 301 303 302 302 301 300 300 300 301 301 302 302 304 305 306 306 305 307 316 317 317 317 320 319 320 319 320 322 319 322 318 318 317 317 318 320 321 322 323 322 321 322 326 327 334
305 304 304 303 303 304 302 300 300 300 300 301 302 303 305 305 308 307 307 307 311 317 320 321 319 320 320 320 320 322 320 319 320 316 319 316 318 319 321 322 322 321 321 320 319 321 324
305 304 303 304 304 304 303 302 299 299 300 300 301 302 305 311 314 307 306 306 309 315 318 315 319 319 320 319 319 319 319 320 319 318 316 317 319 318 321 323 322 321 319 323 317 324 328
303 303 302 303 303 303 303 303 300 299 299 300 300 302 305 314 310 308 304 305 309 312 313 313 317 319 319 318 319 319 319 320 321 321 315 315 316 318 319 320 321 321 321 318 318 319 322
304 303 303 303 303 303 303 304 303 299 299 299 300 299 308 310 311 305 306 306 311 312 314 314 315 316 315 317 316 317 318 319 321 319 318 314 316 319 318 319 320 321 320 320 323 321 319
305 303 303 302 301 302 303 303 302 302 298 298 301 302 305 310 311 310 310 314 315 318 317 318 316 314 315 317 319 316 317 319 320 319 319 316 314 319 318 317 321 321 320 317 316 317 321
303 302 303 302 302 301 302 302 302 302 299 299 303 302 310 310 309 307 306 308 313 317 318 318 318 317 317 319 317 318 321 324 327 326 330 326 313 318 321 320 320 323 323 320 320 320 321
303 303 303 302 301 302 302 303 303 302 300 299 305 304 308 308 309 308 306 308 313 315 316 318 318 319 319 319 322 319 320 322 327 328 324 315 319 317 322 319 321 322 323 322 322 322 325
303 303 302 301 302 302 302 301 302 302 301 302 306 307 307 308 309 305 308 309 313 314 313 315 318 320 319 321 322 324 324 325 328 330 327 316 318 315 321 320 320 322 322 324 324 323 323
302 302 301 301 302 301 301 301 302 302 302 301 302 303 305 308 308 308 307 310 311 312 313 314 315 317 323 324 321 324 325 324 327 327 330 322 317 316 321 318 318 320 322 322 324 323 324
301 300 301 302 302 301 301 302 301 301 302 301 301 301 305 306 310 311 310 310 310 311 311 311 311 313 322 320 322 323 322 322 323 324 326 331 319 315 322 321 322 322 323 323 325 330 328
300 300 300 300 302 302 300 302 301 300 302 302 301 301 304 307 308 309 310 309 308 308 308 312 313 316 316 318 321 324 325 328 328 330 330 326 318 320 320 319 323 332 332 331 332 332 331
300 300 300 300 301 301 300 301 301 300 301 302 302 302 301 303 306 307 309 309 308 307 306 309 311 312 322 317 322 325 328 329 332 330 327 326 325 325 322 323 330 329 330 331 330 333 329
301 301 301 301 301 301 301 301 300 301 301 301 302 301 303 304 305 306 307 307 308 308 307 307 308 312 321 319 322 323 324 325 333 333 333 332 333 333 330 330 330 330 329 330 333 329 328
302 301 301 300 301 300 300 300 301 302 302 301 302 302 301 302 303 304 305 307 307 307 308 309 311 317 319 324 325 325 323 326 330 329 331 332 337 338 333 334 335 328 330 331 330 329 330
302 301 301 301 300 301 300 299 301 301 301 302 303 302 301 302 304 306 305 305 306 307 308 307 307 308 317 318 320 321 328 325 327 336 330 335 334 334 331 331 327 326 325 328 329 328 327
Wind_Speed
17 17 17 18 19 18 18 19 20 21 21 21 19 21 22 21 20 21 21 21 21 21 23 24 22 21 20 11 26 20 14 12 13 18 30 26 19 11 6 5 4 6 2 14 17 24 25
20 21 21 21 20 20 20 20 19 20 22 23 23 21 21 24 23 21 21 21 21 21 22 24 25 23 16 7 15 10 10 8 11 20 30 24 15 14 8 5 4 4 4 15 16 16 15
20 20 21 21 22 23 23 22 21 21 20 22 23 25 23 22 24 24 22 21 22 21 23 24 25 23 18 31 20 24 19 7 8 20 28 27 9 8 5 1 4 9 7 10 5 8 5
23 22 21 20 21 22 23 25 26 23 22 21 21 23 26 26 25 24 23 22 22 22 22 23 22 18 13 18 16 16 11 8 5 12 18 16 14 6 5 1 5 3 5 6 4 8 14
22 23 24 23 22 21 22 23 24 25 25 25 23 22 23 24 27 27 23 23 23 22 20 16 12 9 12 9 7 4 9 9 8 8 11 13 10 6 4 6 4 4 7 3 3 7 7
25 25 24 25 25 25 25 24 23 24 25 25 26 26 24 23 24 27 24 22 19 15 13 9 11 6 13 10 5 13 5 8 7 12 14 10 6 3 3 4 6 7 7 3 7 9 9
26 27 27 27 27 27 27 26 25 24 25 25 26 27 26 23 24 24 23 16 7 4 6 9 11 14 20 15 21 12 5 5 12 7 6 8 4 7 10 9 7 7 8 17 1 3 3
27 26 26 26 26 28 28 29 27 25 25 25 25 27 28 21 23 22 12 6 3 5 15 26 32 36 38 34 17 29 14 7 6 6 2 3 9 9 8 6 8 9 7 10 2 4 4
28 28 27 26 27 27 27 28 28 28 26 26 24 26 29 24 21 11 14 7 2 12 5 21 17 16 17 22 24 34 14 8 5 7 4 6 4 10 8 5 7 6 9 6 14 6 3
26 26 27 27 26 26 25 26 27 28 28 28 25 24 27 27 13 13 8 5 11 14 3 8 5 3 4 9 7 35 20 14 5 12 7 6 6 11 9 11 8 7 8 7 9 10 6
27 26 25 26 27 27 27 27 27 27 28 28 27 23 25 25 24 14 9 15 13 1 5 4 3 3 5 11 4 13 23 16 9 6 6 7 5 8 5 8 9 8 8 11 8 8 5
27 27 27 26 26 28 28 28 29 29 29 28 30 24 29 24 23 12 5 6 2 4 7 6 3 0 4 3 4 4 16 14 15 6 3 10 5 8 11 5 9 10 7 6 4 4 1
28 28 27 26 26 26 27 28 29 31 31 29 30 26 25 26 22 19 14 8 2 5 4 4 1 3 3 5 5 2 8 7 6 6 6 3 7 3 4 5 1 6 7 2 2 2 6
26 27 26 25 26 28 26 27 29 30 32 31 32 29 25 23 18 20 8 3 6 5 8 5 4 4 2 4 6 6 5 5 2 6 4 7 6 8 4 7 8 6 9 6 6 5 5
26 25 25 26 27 26 29 29 29 31 33 33 32 30 21 15 12 11 11 4 8 7 5 2 5 2 3 4 4 3 4 9 10 10 10 7 7 4 4 5 9 4 4 6 7 2 2
28 27 25 25 26 27 28 29 28 30 34 33 33 31 10 8 7 15 3 6 7 6 3 3 3 3 1 3 6 5 3 4 6 11 6 8 1 8 6 2 3 9 9 4 3 5 5
25 25 25 25 25 26 27 28 28 29 32 31 26 13 7 7 10 10 4 7 7 17 7 4 4 1 1 1 5 3 6 5 5 4 9 7 5 6 6 12 14 3 3 5 6 5 7
27 26 25 23 23 25 24 25 26 26 32 26 14 4 8 12 1 1 3 6 5 5 6 4 1 5 7 6 5 7 9 9 7 6 5 10 10 10 12 4 6 11 11 9 7 6 2
28 29 26 25 24 22 22 22 25 24 23 29 18 9 4 10 3 3 5 5 3 3 4 2 4 6 4 6 4 8 9 11 25 8 7 7 5 10 7 6 2 5 5 6 5 4 8
28 23 25 27 22 20 19 20 20 24 18 19 7 4 4 6 2 2 5 5 4 6 6 6 6 4 3 5 7 6 4 4 5 5 22 17 6 12 18 17 6 5 7 7 7 5 6
27 24 25 28 17 15 17 18 19 21 18 13 4 3 2 4 2 3 2 4 4 4 3 4 4 8 10 8 7 9 11 15 5 4 8 4 13 11 22 11 8 8 8 10 8 7 8
27 26 23 23 18 18 18 18 17 18 19 6 4 4 7 8 11 4 2 3 3 4 3 6 6 9 9 10 11 9 9 7 5 4 5 4 7 7 20 16 12 10 8 10 9 3 7
27 25 24 21 18 20 19 16 15 13 15 6 5 6 6 6 4 2 3 1 7 11 11 17 9 6 11 8 12 17 17 13 7 7 3 3 2 3 12 7 7 7 20 10 7 6 10
25 26 26 25 22 19 18 17 15 13 11 10 7 6 5 5 4 4 8 10 15 10 9 17 20 5 6 28 26 13 10 11 8 4 6 3 1 4 14 4 6 13 6 14 16 5 7
23 24 24 24 24 22 21 18 12 14 13 12 10 6 5 5 9 12 10 6 15 18 7 11 19 19 23 13 3 3 2 1 4 6 3 3 2 3 5 6 4 1 3 5 8 6 2
25 25 25 22 22 19 21 19 16 17 13 14 11 13 11 6 6 14 3 10 6 4 5 6 16 19 6 2 2 6 6 6 3 4 2 6 6 4 3 7 7 4 3 3 4 1 6
27 24 25 21 19 19 18 15 15 16 12 16 15 11 8 9 20 22 9 6 7 4 3 6 12 9 11 0 3 3 5 1 7 13 3 6 5 2 1 1 3 4 9 7 5 3 6
23 24 20 19 17 17 17 17 15 13 12 15 17 12 16 12 29 30 28 20 17 11 3 9 10 3 3 2 2 2 1 1 1 11 14 4 2 3 3 4 0 18 9 5 6 18 23
21 18 17 17 17 18 16 15 13 13 13 14 17 11 13 19 18 19 29 31 29 25 17 9 6 6 3 1 2 2 2 2 2 4 6 7 5 4 1 2 8 16 5 14 19 29 30
Wind_Direction
348 346 344 340 339 336 334 333 330 327 326 325 325 323 322 319 315 312 312 312 312 312 312 313 314 312 308 294 278 295 288 268 256 214 197 192 183 177 184 199 200 217 205 192 179 185 167
349 346 345 342 340 336 334 331 329 327 325 325 324 323 320 319 316 312 311 310 309 308 306 308 310 307 295 256 300 289 305 266 251 204 190 184 190 186 187 207 148 281 159 142 149 135 140
347 344 343 340 338 336 334 331 330 327 324 322 322 322 320 318 318 316 312 311 307 303 301 303 306 302 278 271 291 279 281 265 223 206 193 190 170 164 164 208 241 148 103 68 97 124 107
345 343 341 339 335 332 331 329 328 328 326 322 321 319 319 320 318 315 313 313 305 303 300 302 302 292 265 290 279 263 273 220 199 204 203 196 213 250 210 348 54 89 60 115 207 144 163
346 342 340 339 337 333 330 327 324 324 326 325 322 320 317 318 318 317 317 313 308 305 299 301 289 276 271 269 288 319 246 215 207 189 186 199 190 213 173 107 48 339 150 134 173 196 148
347 344 342 339 338 337 334 330 328 325 323 323 323 320 317 321 319 317 321 318 310 295 288 283 266 292 256 245 267 318 299 252 219 188 179 198 183 115 45 98 186 180 167 123 198 193 164
347 344 341 339 339 337 334 332 331 330 326 323 322 318 314 323 320 324 325 336 321 301 289 247 267 254 266 267 290 281 290 254 208 175 160 181 141 181 187 184 180 151 170 186 177 25 37
343 343 342 340 339 337 336 334 334 333 327 322 322 318 314 322 317 326 337 11 346 336 300 287 277 265 261 258 278 266 270 197 165 198 171 109 207 195 176 174 166 165 154 206 327 142 141
339 339 340 342 340 340 338 337 337 336 333 327 325 322 317 321 319 328 341 334 252 319 266 298 272 259 264 237 228 248 233 190 152 176 204 168 232 146 142 173 134 166 171 162 219 145 64
335 334 334 335 336 337 336 335 334 333 331 328 328 328 319 320 323 324 343 346 327 318 0 276 267 272 210 197 227 234 231 201 172 186 159 216 218 164 156 175 148 157 207 161 141 145 200
331 330 329 329 330 332 333 332 331 329 327 325 325 327 319 318 314 318 309 301 321 185 326 247 271 286 183 175 184 208 219 193 176 163 132 236 191 164 166 185 164 209 150 156 160 170 116
328 326 323 323 324 326 328 329 329 326 324 324 319 325 314 311 308 323 335 313 325 53 251 303 243 341 103 235 281 125 173 203 213 172 142 220 242 163 185 184 175 141 101 62 63 98 114
323 324 323 321 319 321 323 324 324 325 323 322 316 318 307 299 298 294 293 317 54 182 312 263 313 14 205 217 219 210 152 158 163 162 210 278 248 212 150 135 33 85 78 2 32 70 209
318 321 325 325 323 323 323 322 322 323 321 322 317 316 307 297 283 271 264 69 210 227 241 286 284 324 281 14 220 158 110 190 239 119 146 174 235 187 179 166 166 178 150 156 186 180 225
313 315 319 322 324 324 327 326 324 324 322 324 321 319 314 306 276 242 168 192 201 203 228 293 331 69 327 345 69 67 203 192 191 178 188 165 251 297 184 148 144 187 154 187 113 38 91
312 311 312 318 321 323 326 329 326 327 326 332 329 325 319 318 289 176 118 221 216 218 259 46 208 224 228 47 29 31 298 227 207 182 178 214 257 226 245 156 217 167 167 98 3 144 219
314 311 313 313 316 319 325 330 333 331 327 335 332 323 330 322 142 169 189 227 225 247 239 215 209 228 97 342 187 210 233 277 200 210 178 160 137 265 146 209 211 125 156 61 123 136 172
314 316 317 315 316 319 323 328 331 336 332 338 344 327 326 149 13 180 204 200 237 242 206 236 155 213 197 201 234 223 215 217 191 127 160 210 197 222 218 229 204 194 182 164 191 228 210
309 311 310 310 313 313 318 322 327 335 343 341 327 286 252 213 227 251 297 296 284 270 259 233 240 198 189 205 237 202 216 235 240 165 211 182 220 224 282 295 221 189 171 127 118 94 189
302 307 303 313 314 313 321 324 329 331 335 335 307 326 312 201 261 25 351 271 262 274 258 222 223 260 252 253 232 254 245 271 222 224 306 200 177 196 224 229 178 193 176 178 154 147 173
309 306 307 311 313 319 317 322 324 329 337 331 267 260 326 305 325 345 256 293 281 267 279 261 279 218 212 221 224 224 244 264 259 37 343 134 197 199 224 193 179 205 180 172 178 187 167
302 303 308 312 304 306 308 314 316 326 337 323 293 329 331 297 296 310 196 272 304 321 265 257 210 260 275 226 208 232 210 202 191 356 29 342 261 196 229 208 194 224 212 178 196 134 245
301 302 305 302 303 306 305 310 308 311 329 322 315 300 298 282 308 314 243 334 308 323 266 245 277 334 285 251 310 279 265 270 209 119 244 286 191 110 240 180 177 233 232 209 191 182 173
302 302 298 295 294 290 294 290 299 300 300 305 297 313 280 276 254 260 311 313 295 297 291 279 295 254 251 312 313 273 258 259 173 152 162 245 178 167 242 92 169 235 190 215 213 189 206
305 302 298 291 287 285 286 286 282 286 280 281 288 292 274 274 282 285 271 290 300 298 260 271 279 263 300 309 308 263 265 211 29 68 94 194 201 284 181 164 240 64 55 142 157 220 269
293 297 297 297 293 288 283 279 281 281 271 269 277 284 248 280 241 259 334 295 284 285 318 269 308 313 325 202 173 187 198 166 142 101 86 331 264 133 316 147 184 219 312 18 268 112 6
300 295 296 294 294 290 279 274 275 264 259 265 269 268 239 263 268 277 258 277 292 339 276 296 340 320 16 351 195 198 228 184 153 168 96 281 321 116 290 197 297 12 319 328 140 211 337
300 307 290 297 293 289 284 281 277 265 261 261 268 265 253 258 271 271 265 267 276 283 261 332 332 323 325 8 193 248 241 328 124 172 194 214 276 212 224 46 190 355 344 174 146 119 92
295 306 296 296 298 285 276 275 271 266 270 256 259 276 247 240 261 265 275 271 261 248 271 283 285 295 260 289 276 270 311 345 168 130 171 183 178 171 162 76 312 339 341 111 111 103 97